TimeCST,TemperatureF,Dew PointF,Humidity,Sea Level PressureIn,VisibilityMPH,Wind Direction,Wind SpeedMPH,Gust SpeedMPH,PrecipitationIn,Events,Conditions,WindDirDegrees,DateUTC
12:53 AM,37.9,34.0,86,29.98,8.0,SE,8.1,-,0.01,,Overcast,130,2013-02-10 06:53:00
1:53 AM,39.0,34.0,82,29.95,8.0,SSE,9.2,-,N/A,,Overcast,150,2013-02-10 07:53:00
2:53 AM,39.9,35.1,83,29.89,9.0,SE,9.2,-,N/A,,Overcast,140,2013-02-10 08:53:00
3:53 AM,42.1,36.0,79,29.83,10.0,SE,11.5,20.7,N/A,,Overcast,130,2013-02-10 09:53:00
4:53 AM,45.0,37.9,76,29.81,10.0,SE,12.7,20.7,N/A,,Overcast,130,2013-02-10 10:53:00
5:25 AM,46.4,39.2,76,29.82,10.0,SSE,11.5,23.0,N/A,,Overcast,150,2013-02-10 11:25:00
5:53 AM,46.0,39.0,76,29.81,10.0,SSE,8.1,-,N/A,,Overcast,160,2013-02-10 11:53:00
6:11 AM,46.4,39.2,76,29.80,9.0,SSE,11.5,-,0.00,Rain-Thunderstorm,Light Thunderstorms and Rain,160,2013-02-10 12:11:00
6:46 AM,44.6,42.8,93,29.85,1.8,West,5.8,18.4,0.15,Rain-Thunderstorm,Heavy Thunderstorms and Rain,260,2013-02-10 12:46:00
6:53 AM,44.1,42.1,93,29.84,1.2,Calm,Calm,-,0.24,Rain-Thunderstorm,Heavy Thunderstorms and Rain,0,2013-02-10 12:53:00
7:05 AM,44.6,42.8,93,29.83,2.0,SSE,4.6,-,0.09,Rain-Thunderstorm,Heavy Thunderstorms and Rain,150,2013-02-10 13:05:00
7:53 AM,45.0,43.0,93,29.81,2.5,SE,9.2,-,0.37,Rain,Rain,140,2013-02-10 13:53:00
8:16 AM,44.6,42.8,93,29.79,3.0,SE,8.1,-,0.06,Rain,Rain,130,2013-02-10 14:16:00
8:49 AM,46.4,44.6,93,29.75,10.0,SE,9.2,21.9,0.07,,Mostly Cloudy,130,2013-02-10 14:49:00
8:53 AM,46.0,44.1,93,29.76,10.0,SE,10.4,-,0.07,,Mostly Cloudy,140,2013-02-10 14:53:00
9:16 AM,46.4,44.6,93,29.74,10.0,SE,8.1,-,N/A,,Overcast,130,2013-02-10 15:16:00
9:27 AM,46.4,44.6,93,29.74,10.0,SE,6.9,-,N/A,,Overcast,130,2013-02-10 15:27:00
9:51 AM,46.4,44.6,93,29.74,10.0,SSE,6.9,-,N/A,,Overcast,150,2013-02-10 15:51:00
9:53 AM,46.9,45.0,93,29.75,10.0,SSE,6.9,-,N/A,,Overcast,150,2013-02-10 15:53:00
10:53 AM,48.9,46.9,93,29.75,3.0,SSE,10.4,-,N/A,,Overcast,160,2013-02-10 16:53:00
11:02 AM,48.2,46.4,93,29.73,1.8,SSE,10.4,-,N/A,,Overcast,160,2013-02-10 17:02:00
11:25 AM,50.0,48.2,94,29.71,3.0,South,10.4,-,N/A,,Overcast,170,2013-02-10 17:25:00
11:53 AM,52.0,50.0,93,29.69,8.0,South,11.5,20.7,N/A,,Overcast,180,2013-02-10 17:53:00
12:37 PM,55.4,51.8,88,29.65,10.0,South,11.5,20.7,N/A,,Overcast,180,2013-02-10 18:37:00
12:46 PM,55.4,51.8,88,29.66,10.0,SSW,10.4,20.7,N/A,,Overcast,210,2013-02-10 18:46:00
12:53 PM,57.0,52.0,83,29.66,10.0,SSW,11.5,19.6,N/A,,Overcast,210,2013-02-10 18:53:00
1:00 PM,57.2,51.8,82,29.66,10.0,SW,12.7,19.6,N/A,,Overcast,220,2013-02-10 19:00:00
1:11 PM,59.0,51.8,77,29.65,10.0,SSW,15.0,23.0,N/A,,Overcast,210,2013-02-10 19:11:00
1:44 PM,60.8,51.8,72,29.64,10.0,SW,13.8,21.9,N/A,,Partly Cloudy,220,2013-02-10 19:44:00
1:53 PM,61.0,51.1,70,29.63,10.0,SW,16.1,21.9,N/A,,Partly Cloudy,220,2013-02-10 19:53:00
2:53 PM,64.0,39.9,41,29.65,10.0,SW,13.8,27.6,N/A,,Scattered Clouds,230,2013-02-10 20:53:00
3:53 PM,63.0,30.0,29,29.68,10.0,WSW,16.1,25.3,N/A,,Clear,240,2013-02-10 21:53:00
4:53 PM,60.1,26.1,27,29.71,10.0,WSW,12.7,20.7,N/A,,Clear,250,2013-02-10 22:53:00
5:53 PM,55.9,26.1,32,29.75,10.0,WSW,12.7,20.7,N/A,,Clear,250,2013-02-10 23:53:00
6:53 PM,53.1,27.0,37,29.78,10.0,WSW,8.1,-,N/A,,Clear,240,2013-02-11 00:53:00
7:53 PM,50.0,28.0,43,29.82,10.0,WSW,6.9,-,N/A,,Clear,240,2013-02-11 01:53:00
8:53 PM,50.0,27.0,41,29.84,10.0,WSW,10.4,-,N/A,,Clear,240,2013-02-11 02:53:00
9:53 PM,50.0,28.0,43,29.87,10.0,West,12.7,19.6,N/A,,Clear,260,2013-02-11 03:53:00
10:53 PM,46.9,27.0,46,29.92,10.0,West,16.1,23.0,N/A,,Clear,280,2013-02-11 04:53:00
11:53 PM,43.0,26.1,51,29.95,10.0,West,17.3,28.8,N/A,,Clear,270,2013-02-11 05:53:00